Regional Weather Roundup
Issued by NWS Memphis, TN

Home | Current Version | Previous Version | Text Only | Print | Product List | Glossary On
Versions: 1 2 3 4 5 6 7 8 9 10 11 12 13 14 15 16 17 18 19 20 21 22 23 24 25 26 27 28 29 30 31 32 33 34 35 36 37 38 39 40 41 42 43 44 45 46 47 48 49 50
000
ASUS44 KMEG 301510
RWRMEG
MEMPHIS CWA HOURLY WEATHER ROUNDUP
NATIONAL WEATHER SERVICE MEMPHIS TN
1000 AM CDT THU OCT 30 2014

...WEST TENNESSEE...

CITY           SKY/WX    TMP DP  RH WIND       PRES   REMARKS
MEMPHIS INTL   MOSUNNY   56  42  59 E5        30.17S
NWS MEMPHIS      N/A     53 N/A N/A MISG        N/A
JACKSON        SUNNY     53  43  68 CALM      30.18S
SAVANNAH       SUNNY     50  46  87 CALM      30.19R
DYERSBURG      SUNNY     54  36  50 S5        30.19S
UNION CITY     SUNNY     48  43  81 S3        30.17S
PARIS          SUNNY     50  37  62 SE6       30.18S
HUNTINGDON     SUNNY     50  40  68 CALM      30.18S


...EASTERN ARKANSAS...

CITY           SKY/WX    TMP DP  RH WIND       PRES   REMARKS
JONESBORO      SUNNY     53  43  68 SE3       30.17S
WEST MEMPHIS   SUNNY     55  46  71 SE6       30.16S
BATESVILLE     SUNNY     54  39  58 CALM      30.17S
NEWPORT        SUNNY     52  43  71 CALM      30.19S
WALNUT RIDGE   SUNNY     52  41  66 S6        30.16F
BLYTHEVILLE    SUNNY     57  43  59 SE10      30.17F
NW BLYTHEVILLE SUNNY     55  43  62 SE8       30.17F
SEARCY         SUNNY     56  42  59 SE5       30.18F
STUTTGART      SUNNY     55  46  71 CALM      30.18S
PINE BLUFF     SUNNY     57  49  74 CALM      30.17F
MONTICELLO     SUNNY     60  49  66 CALM      30.18R


...NORTH MISSISSIPPI...

CITY           SKY/WX    TMP DP  RH WIND       PRES   REMARKS
TUPELO         SUNNY     54  45  71 NE5       30.18R
OXFORD         SUNNY     55  45  67 CALM      30.19S
OLIVE BRANCH   SUNNY     52  45  76 CALM      30.17F
TUNICA         SUNNY     54  46  76 CALM      30.18S HAZE
CLARKSDALE     SUNNY     57  48  72 CALM      30.18S
CORINTH        SUNNY     52  43  71 CALM      30.18S
GRENADA        SUNNY     55  48  76 MISG        N/A
GREENWOOD      SUNNY     59  48  67 CALM      30.17F
COLUMBUS       SUNNY     55  45  68 CALM      30.17S
STARKVILLE     FAIR      54  46  76 CALM      30.17S
GOLDEN TRIANGL SUNNY     55  46  71 N5        30.16S


...SOUTHEAST MISSOURI...

CITY           SKY/WX    TMP DP  RH WIND       PRES   REMARKS
WEST PLAINS    SUNNY     51  33  50 S10       30.15S
POPLAR BLUFF   SUNNY     50  41  71 CALM      30.16F
CAPE GIRARDEAU SUNNY     50  43  77 SE3       30.17F HAZE


...NORTHWEST ALABAMA...

CITY           SKY/WX    TMP DP  RH WIND       PRES   REMARKS
MUSCLE SHOALS  SUNNY     53  43  68 CALM      30.17F


...MIDDLE TENNESSEE...

CITY           SKY/WX    TMP DP  RH WIND       PRES   REMARKS
NASHVILLE      SUNNY     52  40  63 CALM      30.18S
CLARKSVILLE    SUNNY     49  41  74 CALM      30.18S
DICKSON        SUNNY     48  37  66 CALM      30.16R
COLUMBIA       SUNNY     48  48 100 CALM      30.15S


...WESTERN KENTUCKY...

CITY           SKY/WX    TMP DP  RH WIND       PRES   REMARKS
PADUCAH        SUNNY     50  43  77 SE5       30.17F
FORT CAMPBELL  SUNNY     51  40  67 VRB2      30.17S


...CENTRAL ARKANSAS...

CITY           SKY/WX    TMP DP  RH WIND       PRES   REMARKS
LITTLE ROCK    MOSUNNY   58  45  62 CALM      30.17S


SKY/WX REPORTED AS FAIR MEANS FEW OR NO CLOUDS BELOW
12 THOUSAND FEET.




USA.gov is the U.S. government's official web portal to all federal, state and local government web resources and services.